Location: Recife
(8.0585°S, 34.8848°W)
Time: 01:57:24
(UTC-03:00)

Courier 1B Rocket - Pass Details

Date: 18 April 2026
Orbit: 920 x 1201 km, 28.2° (Epoch: 14 May)

Event Time Altitude Azimuth Distance (km) Brightness Sun altitude
Exits shadow 03:41:36 61° 259° (W) 1,047 4.8 -25.3°
Maximum altitude 03:42:32 71° 208° (SSW) 984 4.8 -25.1°
Drops below altitude 10° 03:49:01 10° 124° (SE) 2,710 7.9 -23.5°
Sets 03:51:46 0° 122° (ESE) 3,696 8.8 -22.8°
